Jefferson City, MO

10:54 AM CDT on July 20, 2017 (GMT -0500)
Jefferson City Memorial

Weather History for KJEF - April, 2014

Change the Weather History Date:

Monday, April 21, 2014

  Actual Average Record
Temperature  
Mean Temperature 64 °F -  
Max Temperature 72 °F 68 °F 93 °F (1987)
Min Temperature 57 °F 45 °F 29 °F (1982)
Growing Degree Days 14 (Base 50)    
Moisture  
Dew Point 57 °F    
Average Humidity 79    
Maximum Humidity 97    
Minimum Humidity 57    
Precipitation  
Precipitation 0.07 in - - ()
Sea Level Pressure  
Sea Level Pressure 29.94 in    
Wind  
Wind Speed 5 mph (WSW)    
Max Wind Speed 14 mph    
Max Gust Speed 17 mph    
Visibility 8 miles    
Events Rain    
Averages and records for this station are not official NWS values.
T = Trace of Precipitation, MM = Missing Value Source: NWS Daily Summary

Daily Weather History Graph

Daily Weather History Graph

Search for Another Location

Airport or City:

Trip Planner

Search our weather history database for the weather conditions in past years. The results will help you decide how hot, cold, wet, or windy it might be!

Date:

Astronomy

Apr. 21, 2014 Rise Set
Actual Time 6:24 AM CDT 7:51 PM CDT
Civil Twilight 5:56 AM CDT 8:19 PM CDT
Nautical Twilight 5:22 AM CDT 8:52 PM CDT
Astronomical Twilight 4:47 AM CDT 9:27 PM CDT
Moon 1:20 AM CDT (4/21) 11:52 AM CDT (4/21)
Length of Visible Light 14h 22m
Length of Day
13h 26m
Waning Gibbous, 57% of the Moon is Illuminated
Apr 21
Waning Gibbous
Apr 22
Last Quarter
Apr 29
New
May 6
First Quarter
May 14
Full

Hourly Weather History & Observations

Time (CDT) Temp. Dew Point Humidity Pressure Visibility Wind Dir Wind Speed Gust Speed Precip Events Conditions
12:53 AM 61.0 °F 52.0 °F 72% 29.98 in 10.0 mi NW 5.8 mph - N/A   Clear
1:53 AM 60.1 °F 52.0 °F 75% 29.98 in 10.0 mi Calm Calm - N/A   Clear
2:53 AM 59.0 °F 52.0 °F 78% 29.98 in 10.0 mi Calm Calm - N/A   Scattered Clouds
3:53 AM 59.0 °F 52.0 °F 78% 29.98 in 10.0 mi ESE 3.5 mph - N/A   Mostly Cloudy
4:53 AM 57.9 °F 53.1 °F 84% 29.97 in 10.0 mi East 3.5 mph - N/A   Mostly Cloudy
5:53 AM 59.0 °F 52.0 °F 78% 29.97 in 10.0 mi ESE 3.5 mph - N/A   Mostly Cloudy
6:53 AM 62.1 °F 53.1 °F 72% 29.98 in 10.0 mi West 6.9 mph - N/A   Mostly Cloudy
7:53 AM 61.0 °F 57.0 °F 87% 29.99 in 6.0 mi NW 5.8 mph - 0.03 in Rain Light Rain
8:53 AM 62.1 °F 57.9 °F 86% 29.99 in 6.0 mi Calm Calm - 0.02 in Rain Light Rain
9:31 AM 63.0 °F 60.1 °F 90% 30.02 in 5.0 mi South 5.8 mph - 0.00 in   Overcast
9:53 AM 64.0 °F 60.1 °F 87% 29.97 in 7.0 mi South 4.6 mph - 0.00 in   Mostly Cloudy
10:53 AM 68.0 °F 57.9 °F 70% 29.96 in 10.0 mi SW 8.1 mph - N/A   Overcast
11:53 AM 69.1 °F 57.9 °F 68% 29.96 in 10.0 mi SW 6.9 mph - N/A   Overcast
12:53 PM 71.1 °F 59.0 °F 66% 29.94 in 10.0 mi SSW 8.1 mph - N/A   Overcast
1:53 PM 72.0 °F 55.9 °F 57% 29.92 in 10.0 mi SW 12.7 mph 17.3 mph N/A   Mostly Cloudy
2:53 PM 72.0 °F 57.9 °F 61% 29.90 in 10.0 mi SW 8.1 mph - N/A   Overcast
3:53 PM 72.0 °F 57.9 °F 61% 29.89 in 10.0 mi WSW 10.4 mph - N/A   Overcast
4:53 PM 69.1 °F 61.0 °F 75% 29.88 in 10.0 mi SW 3.5 mph - 0.00 in   Overcast
5:53 PM 72.0 °F 59.0 °F 64% 29.86 in 10.0 mi WSW 13.8 mph - N/A   Mostly Cloudy
6:53 PM 66.9 °F 60.1 °F 79% 29.88 in 5.0 mi North 11.5 mph - 0.01 in Rain Light Rain
7:53 PM 64.9 °F 61.0 °F 87% 29.88 in 10.0 mi NW 3.5 mph - 0.01 in   Overcast
8:53 PM 64.0 °F 61.0 °F 90% 29.91 in 9.0 mi Calm Calm - N/A   Mostly Cloudy
9:27 PM 62.1 °F 61.0 °F 96% 29.95 in 1.8 mi Calm Calm - N/A   Clear
9:34 PM 62.1 °F 61.0 °F 96% 29.95 in 3.0 mi Calm Calm - N/A   Clear
9:53 PM 62.1 °F 60.1 °F 93% 29.91 in 3.0 mi NNW 3.5 mph - N/A   Clear
10:53 PM 61.0 °F 60.1 °F 97% 29.92 in 7.0 mi WNW 4.6 mph - N/A   Mostly Cloudy
11:53 PM 64.0 °F 59.0 °F 84% 29.92 in 10.0 mi NNW 6.9 mph - N/A   Partly Cloudy